User: anonymous   Login
Location: Unspecified
(20.0000°S, 0.0000°E)
Time: 10:45:45
(UTC+00:00)
Language:

NOAA 19 - Orbit

View from above orbital plane
View from above orbital plane
View from above satellite
View from above satellite

Ground track
Ground track

The orbit data is extracted from the following two-line orbital elements,

1 33591U 09005A   19289.55384250  .00000012  00000-0  31608-4 0  9991
2 33591  99.1887 283.6256 0014697  45.3271 314.9094 14.12379867550824
Epoch (UTC): 16 October 2019 13:17:31
Eccentricity: 0.0014697
inclination: 99.1887°
perigee height: 840 km
apogee height: 862 km
right ascension of ascending node: 283.6256°
argument of perigee: 45.3271°
revolutions per day: 14.12379867
mean anomaly at epoch: 314.9094°
orbit number at epoch: 55082

The dashed part of the orbit path shows where the satellite is in the earth's shadow,  

DLR